This is the latest recevied weather packets stored in our database for station/object CE3SUR-16. If no packets are shown the sender has not sent any weather packets the latest 1 day(s).
| Time | Temp. | Humidity | Pressure | Rain* | Wind** | Luminosity | Snow |
|---|---|---|---|---|---|---|---|
| 1777880328 | 15° C | 63% | 955.9 hPa | - | - | - | - |
| 1777878526 | 15° C | 65% | 956.2 hPa | - | - | - | - |
| 1777876729 | 15° C | 64% | 956.3 hPa | - | - | - | - |
| 1777874925 | 15.56° C | 62% | 956.6 hPa | - | - | - | - |
| 1777873125 | 16.11° C | 62% | 957 hPa | - | - | - | - |
| 1777871328 | 16.67° C | 62% | 957.3 hPa | - | - | - | - |
| 1777869528 | 16.67° C | 61% | 957.2 hPa | - | - | - | - |
| 1777867728 | 17.22° C | 59% | 957.2 hPa | - | - | - | - |
| 1777865928 | 17.78° C | 57% | 957.3 hPa | - | - | - | - |
| 1777864127 | 18.33° C | 56% | 957.6 hPa | - | - | - | - |
| 1777862326 | 18.89° C | 55% | 957.5 hPa | - | - | - | - |
| 1777860526 | 20° C | 60% | 957.5 hPa | - | - | - | - |
| 1777858810 | 20° C | 58% | 957.4 hPa | - | - | - | - |
| 1777858726 | 20° C | 58% | 957.4 hPa | - | - | - | - |
| 1777856925 | 20.56° C | 59% | 957.4 hPa | - | - | - | - |
| 1777855125 | 20.56° C | 59% | 957.4 hPa | - | - | - | - |
| 1777853325 | 21.11° C | 60% | 957.4 hPa | - | - | - | - |
| 1777851524 | 21.11° C | 54% | 957.2 hPa | - | - | - | - |
| 1777849726 | 21.67° C | 52% | 957.1 hPa | - | - | - | - |
| 1777847926 | 22.22° C | 52% | 956.8 hPa | - | - | - | - |
| 1777846126 | 22.78° C | 45% | 956.8 hPa | - | - | - | - |
| 1777844325 | 23.89° C | 42% | 956.4 hPa | - | - | - | - |
| 1777842525 | 24.44° C | 45% | 956.1 hPa | - | - | - | - |
| 1777840725 | 25° C | 44% | 955.9 hPa | - | - | - | - |
| 1777838925 | 25.56° C | 41% | 955.8 hPa | - | - | - | - |
* Rain since midnight (hover to see other rain measurements)
** Current wind speed in m/s (hover to see current wind gust speed)